Tracking 28790 objects as of 19-Apr-2024
HD Live streaming from Space Station
objects crossing your sky now

CZ-6A DEB

Track CZ-6A DEB now!
10-day predictions


NORAD ID: 54493
Int'l Code: 2022-151HV
Perigee: 810.8 km
Apogee: 1,107.2 km
Inclination: 98.9 °
Period: 104.1 minutes
Semi major axis: 7329 km
RCS: Unknown
Launch date: November 11, 2022
Source: People's Republic of China (PRC)
Launch site: Taiyaun Space Center, China (TSC)

Note: This is SATELLITE DEBRIS
Your satellite tracking list
Your tracking list is empty




NASA's NSSDC Master Catalog

Two Line Element Set (TLE):
1 54493U 22151HV  24109.95372329  .00006038  00000-0  47169-2 0  9998
2 54493  98.9266  97.0168 0202225  77.1702 285.1964 13.83399645 71829
Source of the keplerian elements: AFSPC